Погода в Тернополе

Хотите узнать прогноз погоды в Тернополе? Тогда Вам сюда: Погода в Тернополе

Поиск расширенной информации на нашем сайте:

Полезная информация:

Новости сайта



02.01.2020
Опубликован Долгосрочный прогноз погоды по городам России и ближнего зарубежья на январь 2020 года.
Карты: Прогноз на январь и февраль 2020 года, Сравнение прогнозируемой аномалии приземной температуры воздуха на январь 2020 года по разным моделям.




Погода в Тернополе - сегодня

Время (UTC), дата Ветер
(°,м/с) 
Видим.   Явления Облачность Т
(°С)
Тd
(°С)
f(%) Тe
(°С)
Pmin
(гПа)
dP
(гПа)
Po
(мм)
O2
(г/м3)
Тmin Tmax R s Состояние
почвы
09 16.01.21 280 (З) 10 км    5/3 1000 м средняя 
[Sc|Ac trans]
-12.6 -16.3 74 -18  1018.8  0.4  732  311           
12 16.01.21 310 (СЗ) 10 км    9/6 1000 м средняя 
[Sc|Ac trans]
-10.6 -14.8 71 -17  1016.9  -1.5  731  308           
15 16.01.21 290 (З) 10 км  в посл. час ливневой снег  9/8 900 м кучево-дожд., средняя 
[Cb cap|Ac trans]
-10.7 -14.8 72 -16  1017  0.1  731  308           
18 16.01.21 240 (ЮЗ) 10 км  {ливн. осадки}  3/0 верхняя 
[Ci fib]
-13.3 -15.9 81 -15  1017.3  -0.2  731  311    -10.5  0.0     
21 16.01.21 180 (Ю) 10 км    9/5 720 м средняя 
[Sc|Ac trans]
-12.7 -14.7 85 -15  1016.8  -0.3  731  310           
00 17.01.21 190 (Ю) 4000 м  слаб. снег  10/9 210 м средняя 
[Frnb|As op]
-10.6 -12.2 88 -12  1015.8  -0.7  730  307           
03 17.01.21 тихо ()   10 км  {снег}  4/0 средняя 
[Ac trans]
-12.9 -14.2 90 -13  1015.8  -0.3  730  310           
06 17.01.21 тихо ()   10 км  {снег}  9/5 1000 м средняя 
[Sc|Ac trans]
-13.3 -14.6 90 -13  1016.5  0.6  730  311  -14.2    0.3     
09 17.01.21 280 (З) 4000 м  слаб. снег  10/10 2000 м 
[Ns]
-7.8 -8.8 93 -11  1016.4  0.8  731  304           
12 17.01.21 330 (СЗ) 6000 м  в посл. час снег  10/10 480 м 
[Sc]
-5.8 -7.3 89 -10  1015.8  -0.3  731  302           
15 17.01.21 330 (СЗ) 3000 м  слаб. снег  10/10 180 м 
[Frnb|Ns]
-8.2 -9.2 92 -12  1017.5  1.3  732  305           
18 17.01.21 340 (С) 6000 м  слаб. снег  10/10 300 м 
[Frnb|Ns]
-10.5 -12.1 88 -16  1019.2  1.2  733  308    -5.5  0.8     
21 17.01.21 320 (СЗ) 10 км  слаб. снег  10/10 330 м 
[Frnb|Ns]
-11.1 -13.4 83 -18  1019.5  0.2  733  309           
00 18.01.21 320 (СЗ) 10 км  позёмок{снег}  8/0 средняя 
[As trans]
-13 -15.4 82 -20  1020.5  0.7  733  312      0.2     
03 18.01.21 310 (СЗ) 10  6000 м  слаб. снег  10/10 1000 м 
[Ns]
-14.1 -16.5 82 -22  1020.4  -0.3  733  313           
06 18.01.21 320 (СЗ) 6000 м  позёмок{снег}  9/9 600 м 
[Sc]
-14.6 -16.6 85 -22  1021.8  1.2  734  314  -14.6    0.2     
09 18.01.21 310 (СЗ) 4000 м  позёмок  5/4 1000 м средняя 
[Sc|Ac trans]
-14.8 -16.8 85 -20  1023.3  1.4  735  314           
12 18.01.21 310 (СЗ) 10 км    3/0 верхняя 
[Ci fib]
-13.2 -16.7 75 -19  1022.3  -0.7  734  312           
15 18.01.21 300 (СЗ) 10 км    4/0 верхняя 
[Ci fib]
-14.2 -17.7 75 -19  1023.2  0.7  735  314           
18 18.01.21 300 (СЗ) 10 км    3/0 верхняя 
[Ci fib]
-16.6 -19.2 80 -20  1024.2  0.6  735  317    -13.1       
21 18.01.21 260 (З) 10 км    ясно 
-17.4 -20 80 -18  1024.6  0.3  736  318           
00 19.01.21 260 (З) 10 км    6/0 верхняя 
[Ci fib]
-17.3 -19.2 85 -20  1024.3  -0.3  735  318           
03 19.01.21 030 (СВ) 10 км    5/0 средняя, верхняя 
[Ac trans|Ci fib]
-15.2 -17.1 85 -15  1023.2  -0.7  735  315           
06 19.01.21 170 (Ю) 10 км    6/0 верхняя 
[Ci fib]
-17.6 -19.5 85 -20  1023.3  -0.3  735  318  -18      равномерный
сухой снег
100% 
09 19.01.21 180 (Ю) 4000 м  дымка  9/0 средняя 
[Ac trans]
-14.4 -15.7 90 -17  1022.8  735  314           
Время (UTC), дата Ветер
(°,м/с) 
Видим.   Явления Облачность Т
(°С)
Тd
(°С)
f(%) Тe
(°С)
Pmin
(гПа)
dP
(гПа)
Po
(мм)
O2
(г/м3)
Тmin Tmax R s Состояние
почвы

Для получения пояснительной информации подведите курсор к названию столбца.

ПОГОДА в Тернополе - архив

Всё, что Вы хотите узнать о погоде в Тернополе - удобно и подробно!

Выберите нужную дату (начиная с 1 января 2019* года) и нажмите кнопку "Найти".
Будут отображены архивные сводки погоды по пункту Тернополь, начиная с указанной даты.


Отображать данные в формате CSV (для использования в таблицах Excel)


Внимание! Наш архив погоды предназначен исключительно для личного некоммерческого использования в познавательных целях. Если Вам необходимы официальные справки о состоянии погоды (для производственных, юридических, коммерческих и т.п. целей), обращайтесь в органы Росгидромета.

*Примечание: данная дата относится к архиву по метеостанциям СССР (Россия, СНГ, Балтия).
Архив по метеостанциям Зарубежной Европы и Азии (кроме Китая) хранится 10 дней, по другим регионам земного шара (Китай, Африка, Америка, Австралия, Океания) - 1 день.

Тернополь - район местоположения метеостанции


Название, широта, долгота, высота метеостанции:
Тернополь 49.5°ш. 25.7°д. 329 м над ур. моря [Украина]

Дополнительная информация

В oтличие oт бoльшинства пoгoдных сайтoв мы публикуем пoдрoбную метеoинфoрмацию в детальнoм прoфессиoнальнoм фoрмате.

Характеристики температуры и влажнoсти вoздуха измеряются на высoте 2 м в тени вдали oт зданий и деревьев.
Скoрoсть ветра измеряется на высoте 10 м (на урoвне рoста челoвека скoрoсть ветра ниже в 1.5-2 раза). Если метеoстанция нахoдится в гoрoде или в лесу, тo скoрoсть ветра занижена на 2-4 м/с пo сравнению с oткрытым местoм. Скoрoсть ветра над акватoриями крупных рек и oзёр, а также на вершинах хoлмoв на 2-5 м/с выше, чем в oбычных услoвиях.
Атмoсфернoе давление в разных тoчках местнoсти мoжет значительнo oтличаться oт давления на метеoстанции, в зависимoсти oт услoвий рельефа (при пoдъёме на 10 м давление пoнижается примернo на 1 мм рт.ст.).